Time,TemperatureF,DewpointF,PressureIn,WindDirection,WindDirectionDegrees,WindSpeedMPH,WindSpeedGustMPH,Humidity,HourlyPrecipIn,Conditions,Clouds,dailyrainin,SoftwareType,DateUTC
2013-12-08 00:06:00,12.3,10.0,30.47,NNW,336,0.0,0.0,90,0.00,,,0.00,weatherlink.com 1.10,2013-12-08 05:06:00,
2013-12-08 00:21:00,12.4,10.0,30.46,NNW,336,0.0,0.0,90,0.00,,,0.00,weatherlink.com 1.10,2013-12-08 05:21:00,
2013-12-08 00:36:00,12.3,10.0,30.45,NNW,336,0.0,0.0,90,0.00,,,0.00,weatherlink.com 1.10,2013-12-08 05:36:00,
2013-12-08 00:51:00,12.1,10.0,30.45,NNW,336,0.0,0.0,90,0.00,,,0.00,weatherlink.com 1.10,2013-12-08 05:51:00,
2013-12-08 01:06:00,12.1,10.0,30.45,NNW,336,0.0,0.0,91,0.00,,,0.00,weatherlink.com 1.10,2013-12-08 06:06:00,
2013-12-08 01:21:00,12.3,10.0,30.45,NNW,336,0.0,0.0,90,0.00,,,0.00,weatherlink.com 1.10,2013-12-08 06:21:00,
2013-12-08 01:36:00,12.4,10.0,30.46,NNW,336,0.0,0.0,91,0.00,,,0.00,weatherlink.com 1.10,2013-12-08 06:36:00,
2013-12-08 01:51:00,12.6,11.0,30.46,NNW,336,0.0,0.0,91,0.00,,,0.00,weatherlink.com 1.10,2013-12-08 06:51:00,
2013-12-08 02:06:00,12.7,11.0,30.46,NNW,336,0.0,0.0,91,0.00,,,0.00,weatherlink.com 1.10,2013-12-08 07:06:00,
2013-12-08 02:21:00,12.9,11.0,30.46,NNW,336,0.0,1.0,90,0.00,,,0.00,weatherlink.com 1.10,2013-12-08 07:21:00,
2013-12-08 02:36:00,13.1,11.0,30.46,NNW,336,0.0,0.0,90,0.00,,,0.00,weatherlink.com 1.10,2013-12-08 07:36:00,
2013-12-08 02:51:00,13.2,11.0,30.46,NNW,336,0.0,0.0,90,0.00,,,0.00,weatherlink.com 1.10,2013-12-08 07:51:00,
2013-12-08 03:06:00,13.3,11.0,30.46,NNW,336,0.0,2.0,91,0.00,,,0.00,weatherlink.com 1.10,2013-12-08 08:06:00,
2013-12-08 03:21:00,13.4,11.0,30.45,NNW,336,0.0,0.0,91,0.00,,,0.00,weatherlink.com 1.10,2013-12-08 08:21:00,
2013-12-08 03:36:00,13.6,12.0,30.45,ESE,120,1.0,3.0,91,0.00,,,0.00,weatherlink.com 1.10,2013-12-08 08:36:00,
2013-12-08 03:51:00,14.2,12.0,30.44,ESE,121,0.0,3.0,90,0.00,,,0.00,weatherlink.com 1.10,2013-12-08 08:51:00,
2013-12-08 04:06:00,14.6,12.0,30.44,ESE,121,1.0,2.0,89,0.00,,,0.00,weatherlink.com 1.10,2013-12-08 09:06:00,
2013-12-08 04:21:00,15.0,12.0,30.43,ENE,74,2.0,3.0,89,0.00,,,0.00,weatherlink.com 1.10,2013-12-08 09:21:00,
2013-12-08 04:36:00,15.7,13.0,30.40,East,87,5.0,5.0,88,0.00,,,0.00,weatherlink.com 1.10,2013-12-08 09:36:00,
2013-12-08 04:51:00,15.9,13.0,30.39,ENE,70,3.0,8.0,88,0.00,,,0.00,weatherlink.com 1.10,2013-12-08 09:51:00,
2013-12-08 05:06:00,16.1,14.0,30.39,East,82,2.0,5.0,89,0.00,,,0.00,weatherlink.com 1.10,2013-12-08 10:06:00,
2013-12-08 05:21:00,16.3,13.0,30.39,East,87,2.0,7.0,87,0.00,,,0.00,weatherlink.com 1.10,2013-12-08 10:21:00,
2013-12-08 05:36:00,16.3,13.0,30.39,East,84,5.0,7.0,86,0.00,,,0.00,weatherlink.com 1.10,2013-12-08 10:36:00,
2013-12-08 05:51:00,16.2,13.0,30.38,East,93,3.0,8.0,87,0.00,,,0.00,weatherlink.com 1.10,2013-12-08 10:51:00,
2013-12-08 06:06:00,16.2,13.0,30.38,East,90,3.0,6.0,87,0.00,,,0.00,weatherlink.com 1.10,2013-12-08 11:06:00,
2013-12-08 06:21:00,16.3,13.0,30.38,ESE,112,4.0,8.0,86,0.00,,,0.00,weatherlink.com 1.10,2013-12-08 11:21:00,
2013-12-08 06:36:00,16.4,13.0,30.38,ESE,117,5.0,8.0,85,0.00,,,0.00,weatherlink.com 1.10,2013-12-08 11:36:00,
2013-12-08 06:51:00,16.4,13.0,30.40,East,86,3.0,7.0,85,0.00,,,0.00,weatherlink.com 1.10,2013-12-08 11:51:00,
2013-12-08 07:06:00,16.5,13.0,30.39,ESE,107,3.0,5.0,86,0.00,,,0.00,weatherlink.com 1.10,2013-12-08 12:06:00,
2013-12-08 07:21:00,16.6,13.0,30.39,ESE,117,5.0,8.0,85,0.00,,,0.00,weatherlink.com 1.10,2013-12-08 12:21:00,
2013-12-08 07:36:00,16.6,13.0,30.39,ESE,115,4.0,9.0,84,0.00,,,0.00,weatherlink.com 1.10,2013-12-08 12:36:00,
2013-12-08 07:51:00,16.7,13.0,30.40,ESE,113,3.0,6.0,84,0.00,,,0.00,weatherlink.com 1.10,2013-12-08 12:51:00,
2013-12-08 08:06:00,16.8,13.0,30.38,ESE,120,4.0,5.0,84,0.00,,,0.00,weatherlink.com 1.10,2013-12-08 13:06:00,
2013-12-08 08:22:00,16.9,13.0,30.37,NE,56,6.0,7.0,84,0.00,,,0.00,weatherlink.com 1.10,2013-12-08 13:22:00,
2013-12-08 08:37:00,16.9,13.0,30.36,East,82,5.0,10.0,83,0.00,,,0.00,weatherlink.com 1.10,2013-12-08 13:37:00,
2013-12-08 08:52:00,17.1,13.0,30.35,NE,51,6.0,8.0,82,0.00,,,0.00,weatherlink.com 1.10,2013-12-08 13:52:00,
2013-12-08 09:07:00,17.3,12.0,30.32,ENE,77,7.0,12.0,81,0.00,,,0.00,weatherlink.com 1.10,2013-12-08 14:07:00,
2013-12-08 09:22:00,17.7,13.0,30.31,ENE,78,9.0,15.0,80,0.00,,,0.00,weatherlink.com 1.10,2013-12-08 14:22:00,
2013-12-08 09:37:00,18.0,13.0,30.31,East,84,6.0,12.0,80,0.00,,,0.00,weatherlink.com 1.10,2013-12-08 14:37:00,
2013-12-08 09:52:00,18.2,13.0,30.30,ENE,69,11.0,14.0,79,0.00,,,0.00,weatherlink.com 1.10,2013-12-08 14:52:00,
2013-12-08 10:07:00,18.5,12.0,30.31,East,97,7.0,16.0,77,0.00,,,0.00,weatherlink.com 1.10,2013-12-08 15:07:00,
2013-12-08 10:22:00,18.8,13.0,30.31,NE,48,7.0,14.0,77,0.00,,,0.00,weatherlink.com 1.10,2013-12-08 15:22:00,
2013-12-08 10:37:00,19.1,13.0,30.31,ENE,61,8.0,13.0,78,0.00,,,0.00,weatherlink.com 1.10,2013-12-08 15:37:00,
2013-12-08 10:52:00,19.5,13.0,30.30,East,82,5.0,11.0,77,0.00,,,0.00,weatherlink.com 1.10,2013-12-08 15:52:00,
2013-12-08 11:07:00,20.1,14.0,30.29,SE,130,7.0,10.0,77,0.00,,,0.00,weatherlink.com 1.10,2013-12-08 16:07:00,
2013-12-08 11:22:00,19.9,13.0,30.29,ESE,105,7.0,13.0,75,0.00,,,0.00,weatherlink.com 1.10,2013-12-08 16:22:00,
2013-12-08 11:37:00,20.3,14.0,30.28,East,86,5.0,10.0,76,0.00,,,0.00,weatherlink.com 1.10,2013-12-08 16:37:00,
2013-12-08 11:52:00,20.5,14.0,30.25,East,83,6.0,11.0,77,0.00,,,0.00,weatherlink.com 1.10,2013-12-08 16:52:00,
2013-12-08 12:07:00,20.6,15.0,30.25,East,91,6.0,11.0,79,0.00,,,0.00,weatherlink.com 1.10,2013-12-08 17:07:00,
2013-12-08 12:22:00,20.9,15.0,30.23,ENE,69,8.0,16.0,78,0.00,,,0.00,weatherlink.com 1.10,2013-12-08 17:22:00,
2013-12-08 12:37:00,21.2,16.0,30.23,ESE,119,11.0,14.0,79,0.00,,,0.00,weatherlink.com 1.10,2013-12-08 17:37:00,
2013-12-08 12:52:00,21.3,15.0,30.21,East,98,6.0,14.0,78,0.00,,,0.00,weatherlink.com 1.10,2013-12-08 17:52:00,
2013-12-08 13:07:00,21.8,16.0,30.20,ESE,105,4.0,12.0,78,0.00,,,0.00,weatherlink.com 1.10,2013-12-08 18:07:00,
2013-12-08 13:22:00,22.0,16.0,30.19,ESE,115,5.0,14.0,77,0.00,,,0.00,weatherlink.com 1.10,2013-12-08 18:22:00,
2013-12-08 13:37:00,22.3,16.0,30.17,East,90,10.0,12.0,77,0.00,,,0.00,weatherlink.com 1.10,2013-12-08 18:37:00,
2013-12-08 13:52:00,22.8,16.0,30.16,ESE,111,5.0,12.0,76,0.00,,,0.00,weatherlink.com 1.10,2013-12-08 18:52:00,
2013-12-08 14:07:00,23.2,17.0,30.15,East,97,10.0,15.0,76,0.00,,,0.00,weatherlink.com 1.10,2013-12-08 19:07:00,
2013-12-08 14:22:00,23.6,17.0,30.15,East,93,6.0,13.0,76,0.00,,,0.00,weatherlink.com 1.10,2013-12-08 19:22:00,
2013-12-08 14:38:00,24.0,17.0,30.13,ESE,119,11.0,16.0,75,0.00,,,0.00,weatherlink.com 1.10,2013-12-08 19:38:00,
2013-12-08 14:53:00,24.4,18.0,30.12,East,101,7.0,14.0,75,0.00,,,0.00,weatherlink.com 1.10,2013-12-08 19:53:00,
2013-12-08 15:08:00,24.5,18.0,30.11,ESE,119,12.0,18.0,75,0.00,,,0.00,weatherlink.com 1.10,2013-12-08 20:08:00,
2013-12-08 15:23:00,24.2,18.0,30.10,East,95,9.0,15.0,77,0.00,,,0.00,weatherlink.com 1.10,2013-12-08 20:23:00,
2013-12-08 15:38:00,23.8,19.0,30.09,East,79,8.0,17.0,80,0.00,,,0.00,weatherlink.com 1.10,2013-12-08 20:38:00,
2013-12-08 15:53:00,23.4,19.0,30.07,ESE,103,10.0,15.0,83,0.00,,,0.00,weatherlink.com 1.10,2013-12-08 20:53:00,
2013-12-08 16:08:00,23.4,20.0,30.05,ESE,102,7.0,13.0,85,0.00,,,0.00,weatherlink.com 1.10,2013-12-08 21:08:00,
2013-12-08 16:23:00,23.2,19.0,30.06,ENE,77,5.0,15.0,85,0.00,,,0.00,weatherlink.com 1.10,2013-12-08 21:23:00,
2013-12-08 16:38:00,23.1,20.0,30.05,ESE,105,4.0,14.0,86,0.00,,,0.00,weatherlink.com 1.10,2013-12-08 21:38:00,
2013-12-08 16:53:00,23.0,19.0,30.04,ENE,59,8.0,13.0,86,0.00,,,0.00,weatherlink.com 1.10,2013-12-08 21:53:00,
2013-12-08 17:08:00,23.0,20.0,30.04,ESE,114,10.0,11.0,87,0.00,,,0.00,weatherlink.com 1.10,2013-12-08 22:08:00,
2013-12-08 17:23:00,22.9,20.0,30.02,ESE,113,5.0,14.0,88,0.00,,,0.00,weatherlink.com 1.10,2013-12-08 22:23:00,
2013-12-08 17:38:00,22.7,20.0,30.00,ESE,105,4.0,12.0,89,0.00,,,0.00,weatherlink.com 1.10,2013-12-08 22:38:00,
2013-12-08 17:53:00,22.7,20.0,29.99,ENE,75,13.0,13.0,90,0.00,,,0.00,weatherlink.com 1.10,2013-12-08 22:53:00,
2013-12-08 18:08:00,22.7,20.0,30.00,SSE,151,6.0,15.0,90,0.00,,,0.00,weatherlink.com 1.10,2013-12-08 23:08:00,
2013-12-08 18:23:00,22.9,21.0,29.98,East,91,9.0,14.0,91,0.00,,,0.00,weatherlink.com 1.10,2013-12-08 23:23:00,
2013-12-08 18:38:00,23.0,21.0,29.97,SE,124,8.0,15.0,91,0.00,,,0.00,weatherlink.com 1.10,2013-12-08 23:38:00,
2013-12-08 18:53:00,23.1,21.0,29.96,ESE,120,4.0,13.0,91,0.00,,,0.00,weatherlink.com 1.10,2013-12-08 23:53:00,
2013-12-08 19:08:00,23.2,21.0,29.96,ESE,108,5.0,13.0,92,0.00,,,0.00,weatherlink.com 1.10,2013-12-09 00:08:00,
2013-12-08 19:23:00,23.4,22.0,29.96,East,88,7.0,13.0,93,0.00,,,0.00,weatherlink.com 1.10,2013-12-09 00:23:00,
2013-12-08 19:38:00,23.6,22.0,29.95,ENE,78,5.0,12.0,93,0.00,,,0.00,weatherlink.com 1.10,2013-12-09 00:38:00,
2013-12-08 19:53:00,23.8,22.0,29.94,East,101,9.0,14.0,93,0.00,,,0.00,weatherlink.com 1.10,2013-12-09 00:53:00,
2013-12-08 20:08:00,23.9,23.0,29.94,SE,126,6.0,11.0,94,0.00,,,0.00,weatherlink.com 1.10,2013-12-09 01:08:00,
2013-12-08 20:23:00,24.0,23.0,29.93,ESE,114,4.0,11.0,94,0.00,,,0.00,weatherlink.com 1.10,2013-12-09 01:23:00,
2013-12-08 20:38:00,24.1,23.0,29.93,ESE,115,8.0,11.0,94,0.00,,,0.00,weatherlink.com 1.10,2013-12-09 01:38:00,
2013-12-08 20:53:00,24.3,23.0,29.92,East,101,6.0,8.0,94,0.00,,,0.00,weatherlink.com 1.10,2013-12-09 01:53:00,
2013-12-08 21:08:00,24.5,23.0,29.91,ESE,123,7.0,11.0,94,0.00,,,0.00,weatherlink.com 1.10,2013-12-09 02:08:00,
2013-12-08 21:23:00,24.6,23.0,29.90,SE,126,6.0,13.0,94,0.00,,,0.00,weatherlink.com 1.10,2013-12-09 02:23:00,
2013-12-08 21:38:00,24.6,23.0,29.89,ESE,112,4.0,12.0,94,0.00,,,0.00,weatherlink.com 1.10,2013-12-09 02:38:00,
2013-12-08 21:53:00,24.6,23.0,29.89,SE,136,5.0,11.0,94,0.00,,,0.00,weatherlink.com 1.10,2013-12-09 02:53:00,
2013-12-08 22:08:00,24.7,24.0,29.89,SE,142,5.0,10.0,95,0.00,,,0.00,weatherlink.com 1.10,2013-12-09 03:08:00,
2013-12-08 22:23:00,24.8,23.0,29.90,SE,136,0.0,8.0,94,0.00,,,0.00,weatherlink.com 1.10,2013-12-09 03:23:00,
2013-12-08 22:39:00,24.7,24.0,29.90,SE,136,2.0,7.0,95,0.00,,,0.00,weatherlink.com 1.10,2013-12-09 03:39:00,
2013-12-08 22:54:00,24.6,23.0,29.89,SE,143,2.0,6.0,95,0.00,,,0.00,weatherlink.com 1.10,2013-12-09 03:54:00,
2013-12-08 23:09:00,24.6,23.0,29.89,South,173,3.0,4.0,95,0.00,,,0.00,weatherlink.com 1.10,2013-12-09 04:09:00,
2013-12-08 23:24:00,24.5,23.0,29.88,ESE,120,3.0,4.0,95,0.00,,,0.00,weatherlink.com 1.10,2013-12-09 04:24:00,
2013-12-08 23:39:00,24.5,23.0,29.87,SE,142,3.0,4.0,95,0.00,,,0.00,weatherlink.com 1.10,2013-12-09 04:39:00,
2013-12-08 23:54:00,24.5,23.0,29.86,SE,140,6.0,6.0,95,0.00,,,0.00,weatherlink.com 1.10,2013-12-09 04:54:00,